Asyut, Egypt

8:07 PM EET on April 23, 2017 (GMT +0200)
Asyut

Weather History for HEAT - December, 2013

Change the Weather History Date:

Sunday, December 22, 2013

  Actual Average Record
Temperature  
Mean Temperature 58 °F -  
Max Temperature 72 °F 68 °F - ()
Min Temperature 43 °F 41 °F - ()
Degree Days  
Heating Degree Days 8    
Growing Degree Days 8 (Base 50)    
Moisture  
Dew Point 35 °F    
Average Humidity 46    
Maximum Humidity 81    
Minimum Humidity 10    
Precipitation  
Precipitation 0.00 in 0.00 in - ()
Sea Level Pressure  
Sea Level Pressure 30.21 in    
Wind  
Wind Speed 9 mph ()    
Max Wind Speed 16 mph    
Max Gust Speed -    
Visibility 6.0 miles    
Events      
T = Trace of Precipitation, MM = Missing Value Source: Averaged Metar Reports

Daily Weather History Graph

Daily Weather History Graph

Search for Another Location

Airport or City:

Trip Planner

Search our weather history database for the weather conditions in past years. The results will help you decide how hot, cold, wet, or windy it might be!

Date:

Astronomy

Dec. 22, 2013 Rise Set
Actual Time 6:41 AM EET 5:07 PM EET
Civil Twilight 6:15 AM EET 5:33 PM EET
Nautical Twilight 5:46 AM EET 6:02 PM EET
Astronomical Twilight 5:18 AM EET 6:30 PM EET
Moon 9:37 PM EET (12/22) 9:49 AM EET (12/22)
Length of Visible Light 11h 17m
Length of Day
10h 26m
Waning Gibbous, 79% of the Moon is Illuminated
Dec 22
Waning Gibbous
Dec 25
Last Quarter
Jan 1
New
Jan 8
First Quarter
Jan 16
Full

Hourly Weather History & Observations

Time (EET) Temp. Windchill Dew Point Humidity Pressure Visibility Wind Dir Wind Speed Gust Speed Precip Events Conditions
12:00 AM 51.8 °F - 35.6 °F 54% 30.24 in - NW 9.2 mph - N/A   Clear
1:00 AM 50.0 °F - 39.2 °F 66% 30.21 in - NW 10.4 mph - N/A   Clear
2:00 AM 50 °F - 39 °F 57% 30.26 in 6 mi NW 12.7 mph - -  
2:00 AM 50.0 °F - 39.2 °F 66% 30.21 in - NW 12.7 mph - N/A   Clear
3:00 AM 48.2 °F - 39.2 °F 71% 30.21 in - NW 12.7 mph - N/A   Clear
4:00 AM 46.4 °F 41.9 °F 39.2 °F 76% 30.21 in - WNW 9.2 mph - N/A   Clear
5:00 AM 47 °F - 39 °F 65% 30.25 in 6 mi NW 10.4 mph - -  
5:00 AM 46.4 °F 41.5 °F 39.2 °F 76% 30.21 in - NW 10.4 mph - N/A   Clear
6:00 AM 46.4 °F 45.2 °F 39.2 °F 76% 30.21 in - NW 3.5 mph - N/A   Clear
7:00 AM 44.6 °F - 39.2 °F 81% 30.21 in - NW 2.3 mph - N/A   Clear
8:00 AM 47 °F - 40 °F 69% 30.27 in 6 mi West 1.2 mph - -  
8:00 AM 48.2 °F - 41.0 °F 76% 30.24 in - West 1.2 mph - N/A   Clear
9:00 AM 51.8 °F - 39.2 °F 62% 30.24 in - NNW 10.4 mph - N/A   Clear
10:00 AM 55.4 °F - 39.2 °F 54% 30.27 in - North 9.2 mph - N/A   Clear
11:00 AM 59 °F - 39 °F 36% 30.25 in 6 mi North 6.9 mph - -  
11:00 AM 59.0 °F - 39.2 °F 48% 30.24 in - North 6.9 mph - N/A   Clear
12:00 PM 62.6 °F - 41.0 °F 45% 30.21 in - North 10.4 mph - N/A   Clear
1:00 PM 68.0 °F - 30.2 °F 24% 30.18 in - North 10.4 mph - N/A   Clear
2:00 PM 71 °F - 27 °F 10% 30.15 in 6 mi North 10.4 mph - -  
2:00 PM 71.6 °F - 26.6 °F 19% 30.15 in - North 10.4 mph - N/A   Clear
3:00 PM 71.6 °F - 26.6 °F 19% 30.15 in - North 11.5 mph - N/A   Clear
4:00 PM 71.6 °F - 30.2 °F 22% 30.15 in - NNW 13.8 mph - N/A   Clear
5:00 PM 69 °F - 34 °F 17% 30.14 in 6 mi NNW 13.8 mph - -  
5:00 PM 69.8 °F - 33.8 °F 27% 30.15 in - NNW 13.8 mph - N/A   Clear
6:00 PM 64.4 °F - 24.8 °F 22% 30.18 in - NNW 16.1 mph - N/A   Clear
7:00 PM 60.8 °F - 23.0 °F 23% 30.18 in - NNW 11.5 mph - N/A   Clear
8:00 PM 59 °F - 34 °F 27% 30.19 in 6 mi NNW 11.5 mph - -  
8:00 PM 59.0 °F - 30.2 °F 34% 30.18 in - NNW 11.5 mph - N/A   Clear
9:00 PM 57.2 °F - 30.2 °F 36% 30.21 in - NNW 11.5 mph - N/A   Clear
10:00 PM 55.4 °F - 28.4 °F 36% 30.21 in - NNW 9.2 mph - N/A   Clear
11:00 PM 53 °F - 30 °F 29% 30.22 in 6 mi NNW 10.4 mph - -  
11:00 PM 53.6 °F - 30.2 °F 41% 30.21 in - NNW 10.4 mph - N/A   Clear